Terminal Aerodrome Forecast
Issued by NWS

Home | Current Version | Previous Version | Text Only | Print | Product List | Glossary On
Versions: 1 2 3 4 5 6 7 8 9 10 11 12 13 14 15 16 17 18 19 20 21 22 23 24 25 26 27 28 29 30 31 32 33 34 35 36 37 38 39 40 41 42 43 44 45 46 47 48 49 50
000
FTUS42 KJAX 151806 AAB
TAFVQQ
TAF AMD
KVQQ 151806Z 1518/1618 03013G22KT P6SM VCTS SCT015CB BKN025
      TEMPO 1518/1521 2SM TSRA OVC015CB
     FM152100 04015G25KT P6SM VCSH SCT020 BKN035
     FM152300 02010KT P6SM SCT025 BKN080
     FM160600 01006KT 6SM BR SCT030 BKN060
     FM161400 03010G16KT P6SM SCT030=

USA.gov is the U.S. government's official web portal to all federal, state and local government web resources and services.